Retour au catalogue

STARLINK-35602

ActifCommunicationsVLEO
NORAD 66403·PAYLOAD·🇺🇸 United States

Lancé Nov 8, 2025 depuis Cape Canaveral Space Force Station

Loading…

Prochains Passages (prochaines 24 heures)

TLE

FraisSource: CelesTrak SupGP

Époque: Sep 15, 2026, 04:11 UTC

1 66403C 25257Z   26258.17479167  .00004917  00000+0  14528-3 0  2586
2 66403  53.1590  52.6616 0001202  79.9260 292.4819 15.34387851    19

Suivez STARLINK-35602 en temps réel avec AllMySat

Download on the App Store